User: anonymous   Login
Location: Unspecified
(0.0000°N, 0.0000°E)
Time: 07:56:15
(UTC+00:00)
Language:

Tiangong - Orbit

View from above orbital plane
View from above orbital plane
View from above satellite
View from above satellite

Ground track
Ground track

The orbit data is extracted from the following two-line orbital elements,

1 48274U 21035A   22267.66382337  .00010247  00000-0  11476-3 0  9999
2 48274  41.4724 332.7962 0004529  12.8117 121.5145 15.62658214 80323
Epoch (UTC): 24 September 2022 15:55:54
Eccentricity: 0.0004529
inclination: 41.4724°
perigee height: 377 km
apogee height: 383 km
right ascension of ascending node: 332.7962°
argument of perigee: 12.8117°
revolutions per day: 15.62658214
mean anomaly at epoch: 121.5145°
orbit number at epoch: 8032

The dashed part of the orbit path shows where the satellite is in the earth's shadow,  

DLR